sat.trackr.live / text

‹ back to catalog

STARLINK-36366

NORAD 68122 · 2026-044X

PAYLOAD ACTIVE UNKNOWN

§ Identity

Operator
Country
US
Launch date
2026-03-08
Launch site
AFWTR
Launch vehicle
Mass (kg)
RCS (m²)

Purposes: comms

External: N2YO · Heavens-Above · Gunter

§ Orbital elements

Epoch: 2026-09-20T04:32:18.716064Z

Period
93.91 min
Inclination
97.2857°
Eccentricity
0.0001857
Mean motion
15.33453686 rev/d
Perigee alt
464.2 km
Apogee alt
466.8 km
Semi-major
6,843.7 km
B*
6.6421e-4
RAAN
222.1983°
Arg perigee
92.1376°
Mean anomaly
268.0079°
Rev number
3,139

§ Raw data

STARLINK-363661 68122U 26044X   26263.18910551  .00021436  00000+0  66421-3 0  99912 68122  97.2857 222.1983 0001857  92.1376 268.0079 15.33453686 31397

JSON: /api/v1/satellites/68122 · /tle

For live sub-satellite position, see the globe view (requires WebGL).

§ Visibility from observer

Set your observer location to see the next 7 days of passes ≥ 10°. The values pass through the URL so the page stays shareable.

No JS? Fill the form by hand. The geolocation button needs JavaScript.